Cloud_Cover
100 100 100 100 100 100 100 100 100 100 100 100 100 100 100 100 100 100 100 100 55 5 5 3 3 7 6 11 54 5 5 2 16 5 5 10 26 41 5 5 20 8 5 4 4
100 100 100 100 100 100 93 100 100 100 100 100 96 80 60 71 100 81 9 6 5 5 11 43 21 28 5 5 5 6 10 5 1 4 5 5 42 46 14 97 15 5 5 5 5
99 100 100 100 100 100 100 100 100 100 100 100 92 27 5 5 10 5 5 3 18 60 43 6 5 5 5 86 77 42 5 7 5 5 7 25 36 100 92 91 96 5 6 25 89
100 100 100 100 100 100 100 100 100 100 100 100 100 100 100 100 100 100 100 77 5 6 3 5 5 5 5 6 5 5 6 34 5 6 5 26 55 94 100 100 80 6 19 5 5
100 100 100 100 100 100 100 100 100 100 100 100 100 100 100 85 49 30 5 5 4 1 5 4 21 20 17 25 62 5 8 84 17 68 49 93 100 100 90 47 97 40 5 6 5
92 87 100 100 100 100 100 100 100 100 100 100 100 100 100 98 57 70 20 11 5 5 5 0 2 5 15 36 5 35 30 29 56 99 100 100 100 100 100 100 66 50 6 11 5
100 100 100 100 100 100 100 100 100 100 100 100 100 100 100 100 100 100 92 89 5 5 7 5 5 77 100 100 80 36 38 8 11 26 100 100 100 100 100 100 100 51 69 84 75
98 91 100 100 100 100 100 100 100 100 100 100 100 100 100 100 100 100 88 11 54 97 80 90 85 100 100 100 100 100 63 6 21 5 35 70 100 100 100 100 100 100 44 72 100
94 36 34 90 100 100 100 100 100 96 19 92 100 100 100 100 82 100 100 94 37 88 100 100 73 38 73 72 100 94 81 98 37 5 11 68 96 57 100 100 100 100 100 100 100
91 74 100 100 100 15 100 100 99 100 93 97 100 100 100 100 100 100 100 100 100 78 6 5 59 100 5 11 100 100 100 99 61 8 9 28 83 100 99 100 100 100 100 100 100
32 80 100 100 100 100 100 100 30 98 100 100 100 100 65 100 95 100 100 100 100 100 5 0 5 42 100 61 100 56 66 100 100 100 100 64 36 21 28 100 100 100 100 100 100
100 100 100 100 100 100 86 99 98 98 100 68 100 100 100 100 100 100 100 57 20 84 24 5 5 5 10 98 100 100 95 92 6 19 5 60 26 5 13 30 97 100 100 100 100
97 78 100 100 73 100 98 100 62 73 92 100 75 70 99 100 100 100 100 7 5 6 5 5 5 28 15 85 51 92 83 100 51 48 11 13 36 62 7 22 98 100 100 100 100
100 71 48 86 69 98 100 82 100 100 100 100 100 100 100 100 66 13 86 100 100 100 100 100 100 100 100 100 100 100 100 100 100 100 100 100 84 94 89 96 95 100 100 100 100
99 100 100 98 100 100 100 100 90 100 100 100 100 100 100 100 100 98 100 100 100 100 100 100 99 100 100 100 100 100 100 100 100 100 100 100 91 100 100 99 36 88 100 66 100
100 92 100 100 90 100 92 100 66 66 100 100 100 55 100 100 100 74 98 100 100 100 100 100 91 99 98 64 54 18 6 40 98 100 100 98 64 97 14 61 96 95 99 100 99
100 100 100 100 100 100 100 98 100 100 100 100 99 59 100 100 100 98 62 76 100 95 100 100 100 100 81 5 12 19 5 4 1 5 3 2 5 71 27 59 72 100 86 84 92
100 100 100 100 100 100 100 100 100 100 100 100 100 99 100 100 93 96 76 39 100 100 100 100 100 84 100 95 13 8 6 5 2 4 29 10 3 5 5 5 5 5 5 25 97
100 100 100 100 100 100 100 71 100 100 100 99 100 48 65 87 5 62 25 15 67 97 100 79 67 81 91 84 49 14 13 5 5 5 26 1 3 43 13 5 5 4 5 21 75
100 100 100 100 100 100 95 100 99 100 100 87 95 86 95 86 81 5 24 100 98 82 6 5 5 5 5 7 5 5 5 6 77 97 44 92 84 37 55 9 0 3 5 24 99
100 100 100 100 100 100 83 36 88 75 39 33 73 74 74 74 87 77 100 69 22 5 5 5 5 4 1 4 5 64 70 75 86 88 95 25 58 35 5 5 5 46 100 94 100
100 100 100 100 100 100 82 100 100 100 49 20 100 99 100 100 100 97 100 95 29 91 95 66 5 1 5 5 0 5 10 26 100 100 99 100 17 5 91 99 100 100 100 100 100
100 100 100 100 100 100 89 95 82 59 100 100 100 100 100 100 100 58 19 100 100 100 100 100 82 22 5 24 50 34 76 99 100 19 61 100 17 5 20 100 100 100 100 100 100
100 100 100 100 100 100 100 100 100 100 100 100 100 99 98 83 60 25 65 88 100 100 100 100 100 91 84 52 96 98 94 100 100 100 100 60 45 90 100 100 100 100 100 100 100
100 100 100 100 100 100 100 100 100 100 100 100 100 100 93 55 97 81 82 86 91 100 100 100 100 100 100 30 98 100 64 100 100 100 100 11 93 0 100 100 100 100 100 100 100
100 100 100 100 100 100 100 100 100 100 100 100 92 100 100 87 99 100 99 88 66 100 100 100 91 59 81 34 100 100 71 89 100 92 100 100 68 98 100 100 24 11 76 100 100
100 100 100 100 100 100 100 100 100 100 100 100 100 100 100 100 100 99 94 74 87 100 100 100 78 100 81 99 100 53 0 22 16 63 100 100 68 99 99 80 99 100 21 66 100